Location: Cahas Mountain Overlook
(37.0833°N, 80.1000°W)
Time: 08:06:04
(UTC-04:00)

Explorer 7 - Pass Details

Date: 12 February 2026
Orbit: 430 x 540 km, 50.2° (Epoch: 14 March)

Event Time Altitude Azimuth Distance (km) Brightness Sun altitude
Rises 20:19:31 0° 306° (NW) 2,548 11.1 -28.9°
Enters shadow 20:22:42 - 336° (NNW) 1,749 9.7 -29.5°
Reaches altitude 10° 20:23:02 10° 341° (NNW) 1,701 - -29.6°
Maximum altitude 20:24:25 12° 2° (N) 1,616 - -29.8°
Drops below altitude 10° 20:25:50 10° 23° (NNE) 1,727 - -30.1°
Sets 20:29:29 0° 57° (ENE) 2,645 - -30.8°
